Terug naar catalogus

NNSS 19

TRANSIT 19

ActiefNavigatiePO
NORAD 4507·PAYLOAD·🇺🇸 United States

Gelanceerd Aug 27, 1970 vanaf Vandenberg Space Force Base

Loading…

Volgende Passages (komende 24 uur)

TLE

VersSource: Space-Track

Epoch: Sep 14, 2026, 08:47 UTC

1 04507U 70067A   26257.36651808  .00000072  00000-0  88460-4 0  9994
2 04507  90.0177 234.8796 0170346 213.6531 145.3712 13.51377928759441

Volg NNSS 19 in realtime met AllMySat

Download on the App Store